Location: Unspecified
(0.0000°N, 0.0000°E)
Time: 11:59:32
(UTC+00:00)

Vanguard 2 Rocket - All Passes

Search period start: 23 January 2021 00:00
Search period end: 02 February 2021 00:00
Orbit: 554 x 3325 km, 32.9° (Epoch: 22 January)

Date Brightness Start Highest point End Pass type
(mag) Time Alt. Az. Time Alt. Az. Time Alt. Az.
23 Jan - 00:30:48 10° WNW 00:35:02 52° SSW 00:41:23 10° SE night (unlit)
23 Jan - 02:46:48 10° SW 02:50:29 14° SSW 02:55:07 10° SSE visible
23 Jan - 05:07:33 10° S 05:09:51 11° S 05:12:21 10° SSE visible
23 Jan - 07:20:45 10° SSW 07:32:06 21° SSE 07:45:28 10° ESE daylight
23 Jan - 09:34:55 10° SW 09:53:18 48° SSE 10:11:01 10° ENE daylight
23 Jan - 11:51:55 10° WSW 12:12:38 81° NW 12:27:56 10° NE daylight
23 Jan - 14:14:52 10° W 14:29:53 31° NW 14:40:13 10° NNE daylight
23 Jan - 23:31:38 10° NW 23:35:35 79° NE 23:40:53 10° ESE night (unlit)
24 Jan - 01:46:03 10° WSW 01:49:43 17° SSW 01:54:36 10° SSE visible
24 Jan - 06:21:15 10° SSW 06:28:56 15° SSE 06:38:06 10° SE daylight
24 Jan - 08:34:17 10° SSW 08:50:20 37° SSE 09:07:50 10° E daylight
24 Jan - 10:49:45 10° SW 11:10:13 80° SE 11:27:22 10° ENE daylight
24 Jan - 13:09:59 10° WSW 13:28:21 46° NW 13:41:13 10° NNE daylight
24 Jan - 15:40:04 10° NW 15:45:45 13° NNW 15:50:29 10° N daylight
24 Jan - 22:32:48 10° NNW 22:36:22 32° NE 22:40:20 10° E night (unlit)
25 Jan - 00:45:47 10° W 00:49:29 24° SSW 00:54:31 10° SSE night (unlit)
25 Jan - 05:23:24 10° S 05:26:02 11° SSE 05:28:53 10° SSE visible
25 Jan - 07:34:14 10° SSW 07:47:24 28° SSE 08:03:08 10° E daylight
25 Jan - 09:48:21 10° SW 10:07:30 64° SE 10:25:59 10° ENE daylight
25 Jan - 12:06:18 10° WSW 12:26:24 62° NW 12:41:35 10° NE daylight
25 Jan - 14:32:00 10° WNW 14:44:09 22° NW 14:53:10 10° NNE daylight
25 Jan - 21:34:30 10° N 21:36:56 15° NNE 21:39:19 10° ENE night (unlit)
25 Jan - 23:45:56 10° WNW 23:49:43 40° SSW 23:54:39 10° SE night (unlit)
26 Jan - 06:34:49 10° SSW 06:44:35 20° SSE 06:56:43 10° ESE daylight
26 Jan - 08:47:38 10° SW 09:04:44 49° SE 09:23:33 10° ENE daylight
26 Jan - 11:03:41 10° WSW 11:24:03 80° NW 11:41:20 10° NE daylight
26 Jan - 13:25:56 10° W 13:42:22 33° NW 13:54:27 10° NNE daylight
26 Jan - 22:46:26 10° NW 22:50:22 89° SW 22:54:48 10° SE night (unlit)
27 Jan - 01:02:25 10° SW 01:04:14 12° SSW 01:06:17 10° S night (unlit)
27 Jan - 05:36:29 10° S 05:41:57 13° SSE 05:48:24 10° SE visible
27 Jan - 07:47:31 10° SSW 08:02:05 37° SSE 08:19:49 10° E daylight
27 Jan - 10:01:59 10° SW 10:21:26 82° SE 10:40:20 10° ENE daylight
27 Jan - 12:21:21 10° WSW 12:40:17 46° NW 12:55:00 10° NNE daylight
27 Jan - 14:50:26 10° WNW 14:59:01 16° NNW 15:05:54 10° N daylight
27 Jan - 21:47:12 10° NW 21:51:07 37° NE 21:54:50 10° ESE night (unlit)
28 Jan - 00:01:17 10° WSW 00:04:07 18° SSW 00:07:30 10° SSE night (unlit)
28 Jan - 06:48:02 10° SSW 06:59:38 26° SSE 07:14:34 10° E daylight
28 Jan - 09:01:04 10° SW 09:18:46 65° SE 09:38:28 10° ENE daylight
28 Jan - 11:18:06 10° WSW 11:37:54 61° NW 11:54:57 10° NE daylight
28 Jan - 13:42:57 10° WNW 13:56:52 24° NNW 14:07:33 10° NNE daylight
28 Jan - 20:48:09 10° NNW 20:51:35 19° NNE 20:54:32 10° ENE visible
28 Jan - 23:00:56 10° W 23:04:29 32° SSW 23:08:25 10° SSE night (unlit)
29 Jan - 05:49:21 10° S 05:57:22 18° SSE 06:07:35 10° ESE visible
29 Jan - 08:00:49 10° SW 08:16:16 49° SE 08:35:32 10° ENE daylight
29 Jan - 10:15:58 10° WSW 10:35:16 78° NW 10:54:14 10° NE daylight
29 Jan - 12:37:17 10° W 12:54:30 34° NNW 13:08:16 10° NNE daylight
29 Jan - 15:10:13 10° NW 15:14:29 11° NNW 15:18:15 10° N daylight
29 Jan - 19:49:25 10° N 19:51:35 12° NNE 19:53:30 10° NE visible
29 Jan - 22:00:56 10° WNW 22:05:11 76° SW 22:09:10 10° SE night (unlit)
30 Jan - 04:53:24 10° SSE 04:55:18 10° SSE 04:57:18 10° SSE visible
30 Jan - 07:01:12 10° SSW 07:14:04 36° SE 07:31:19 10° E daylight
30 Jan - 09:14:44 10° SW 09:32:36 84° SE 09:52:46 10° ENE daylight
30 Jan - 11:33:11 10° WSW 11:51:56 46° NW 12:08:21 10° NE daylight
30 Jan - 14:01:07 10° WNW 14:11:57 18° NNW 14:20:42 10° NNE daylight
30 Jan - 21:01:09 10° NW 21:05:54 46° NNE 21:09:41 10° ESE visible
30 Jan - 23:16:46 10° WSW 23:18:45 13° SSW 23:20:51 10° S night (unlit)
31 Jan - 06:02:15 10° SSW 06:12:10 25° SE 06:25:38 10° E daylight
31 Jan - 08:14:17 10° SW 08:30:09 66° SE 08:50:24 10° ENE daylight
31 Jan - 10:30:26 10° WSW 10:49:12 60° NW 11:07:49 10° NE daylight
31 Jan - 12:54:14 10° WNW 13:09:14 26° NNW 13:21:31 10° NNE daylight
31 Jan - 20:01:21 10° NNW 20:06:15 26° NNE 20:09:53 10° E visible
31 Jan - 22:15:35 10° W 22:19:12 27° SW 22:22:39 10° SSE night (unlit)
01 Feb - 05:04:21 10° S 05:10:29 15° SSE 05:18:12 10° ESE visible
01 Feb - 07:14:28 10° SW 07:28:04 49° SE 07:47:01 10° ENE daylight
01 Feb - 09:28:46 10° WSW 09:46:28 76° NW 10:06:36 10° NE daylight
01 Feb - 11:49:06 10° W 12:06:22 35° NNW 12:21:39 10° NNE daylight
01 Feb - 14:19:57 10° NW 14:27:39 14° NNW 14:34:10 10° N daylight
01 Feb - 19:01:25 10° NNW 19:06:07 18° NNE 19:09:41 10° ENE visible
01 Feb - 21:15:01 10° WNW 21:19:58 66° SW 21:23:53 10° SE visible
